Regional Weather Roundup
Issued by NWS

Home | Current Version | Previous Version | Graphics & Text | Print | Product List | Glossary On
Versions: 1 2 3 4 5 6 7 8 9 10 11 12 13 14 15 16 17 18 19 20 21 22 23 24 25 26 27 28 29 30 31 32 33 34 35 36 37 38 39 40 41 42 43 44 45 46 47 48 49 50
000
ASUS43 KTOP 300459
RWRKS

WEATHER ROUNDUP FOR KANSAS
NATIONAL WEATHER SERVICE GOODLAND KS
1200 AM CDT SAT JUL 30 2016

NOTE:  "FAIR" INDICATES FEW OR NO CLOUDS BELOW 12,000 FEET WITH NO
SIGNIFICANT WEATHER AND/OR OBSTRUCTIONS TO VISIBILITY.

KSZ001>006-013>018-027>032-041>047-300600-
NORTHWEST KANSAS

CITY           SKY/WX    TMP DP  RH WIND       PRES   REMARKS
GOODLAND       PTCLDY    65  62  90 CALM      30.13R
HAYS           MOCLDY    72  61  68 E9        30.03F
HILL CITY      CLOUDY    70  66  87 E6        30.05F
RUSSELL        PTCLDY    72  66  81 E8        30.02F
$$

KSZ061>065-074>080-084>089-300600-
SOUTHWEST KANSAS

CITY           SKY/WX    TMP DP  RH WIND       PRES   REMARKS
DODGE CITY     MOCLDY    72  67  84 SE6       30.05S
ELKHART          N/A     71  59  66 E14         N/A
GARDEN CITY    CLOUDY    71  66  84 E8        30.05R
GREAT BEND     CLOUDY    73  63  68 E9        30.02F
LIBERAL        CLOUDY    75  61  60 E14       30.06F
$$

KSZ066>073-081>083-090>101-300600-
SOUTHEAST KANSAS

CITY           SKY/WX    TMP DP  RH WIND       PRES   REMARKS
CHANUTE        CLEAR     72  70  93 CALM      30.01S
COFFEYVILLE    CLEAR     73  70  90 CALM      30.00R
HUTCHINSON     CLOUDY    74  68  81 E7        30.02F
NEWTON         CLOUDY    73  70  90 E6        30.03F
PARSONS        CLEAR     71  70  96 CALM      30.02R
WICHITA INTL   CLOUDY    76  69  79 SE6       30.00F
WICHITA JABRA  CLEAR     72  69  90 E5        30.01S
WINFIELD       CLEAR     74  69  85 SE3       30.02S
$$

KSZ007>012-019>026-033>040-048>060-102>105-300600-
NORTHEAST KANSAS

CITY           SKY/WX    TMP DP  RH WIND       PRES   REMARKS
CONCORDIA      CLEAR     68  64  87 SE3       30.04R
EMPORIA        CLEAR     71  68  90 NE5       30.02S
LAWRENCE       CLEAR     68  64  87 CALM      30.02R
MANHATTAN      CLEAR     70  66  87 CALM      30.02S
OLATHE IND     CLEAR     71  64  78 N6        30.03R
OLATHE EXE     CLEAR     73  63  70 CALM      30.02R
SALINA         CLEAR     77  66  68 E5        30.03R
TOPEKA BILLARD CLEAR     71  65  81 CALM      30.02R
TOPEKA FORBES  CLEAR     71  65  81 CALM      30.02S
$$



USA.gov is the U.S. government's official web portal to all federal, state and local government web resources and services.